Weather History for Milton, FL

Change the Weather History Date:

Saturday, July 13, 2013

  Actual Average (KNSE) Record (KNSE)
Temperature  
Mean Temperature 78 °F -  
Max Temperature 87 °F 87 °F 98 °F (2000)
Min Temperature 69 °F 70 °F 71 °F (1999)
Cooling Degree Days 13    
Growing Degree Days 28 (Base 50)    
Moisture  
Dew Point 70 °F    
Average Humidity 85    
Maximum Humidity 100    
Minimum Humidity 62    
Precipitation  
Precipitation 0.15 in - - ()
Sea Level Pressure  
Sea Level Pressure 29.91 in    
Wind  
Wind Speed 4 mph (ESE)    
Max Wind Speed 31 mph    
Max Gust Speed 38 mph    
Visibility 8 miles    
Events Rain , Thunderstorm    
Averages and records for this station are not official NWS values.
T = Trace of Precipitation, MM = Missing Value Source: NWS Daily Summary

Daily Weather History Graph

Daily Weather History Graph

Search for Another Location

Airport:

Trip Planner

Search our weather history database for the weather conditions in past years. The results will help you decide how hot, cold, wet, or windy it might be!

Date:

Astronomy

Jul. 13, 2013 Rise Set
Actual Time 5:54 AM CDT 7:52 PM CDT
Civil Twilight 5:27 AM CDT 8:20 PM CDT
Nautical Twilight 4:54 AM CDT 8:52 PM CDT
Astronomical Twilight 4:19 AM CDT 9:27 PM CDT
Moon 10:45 AM CDT (7/13) 11:00 PM CDT (7/13)
Length of Visible Light 14h 52m
Length of Day
13h 58m
Waxing Crescent, 26% of the Moon is Illuminated
Jul 13
Waxing Crescent
Jul 15
First Quarter
Jul 22
Full
Jul 29
Last Quarter
Aug 6
New

Hourly Weather History & Observations

Time (CDT) Temp. Heat Index Dew Point Humidity Pressure Visibility Wind Dir Wind Speed Gust Speed Precip Events Conditions
12:11 AM 73.4 °F - 69.8 °F 88% 29.90 in 10.0 mi Variable 3.5 mph - 0.00 in Thunderstorm Thunderstorm
12:56 AM 73.0 °F - 69.1 °F 87% 29.84 in 10.0 mi Calm Calm - 0.00 in   Clear
1:56 AM 73.0 °F - 70.0 °F 90% 29.85 in 10.0 mi Calm Calm - N/A   Scattered Clouds
2:56 AM 72.0 °F - 70.0 °F 93% 29.86 in 10.0 mi Calm Calm - N/A   Clear
3:56 AM 72.0 °F - 70.0 °F 93% 29.85 in 10.0 mi Calm Calm - N/A   Partly Cloudy
4:56 AM 72.0 °F - 69.1 °F 91% 29.85 in 10.0 mi Calm Calm - N/A   Clear
5:56 AM 72.0 °F - 70.0 °F 93% 29.85 in 10.0 mi Calm Calm - N/A   Clear
6:23 AM 73.4 °F - 69.8 °F 88% 29.90 in 8.0 mi ESE 5.8 mph - N/A   Scattered Clouds
6:28 AM 73.4 °F - 71.6 °F 94% 29.91 in 2.5 mi East 5.8 mph - N/A   Mostly Cloudy
6:36 AM 71.6 °F - 71.6 °F 100% 29.90 in 1.0 mi ENE 3.5 mph - N/A   Mist
6:44 AM 71.6 °F - 71.6 °F 100% 29.91 in 3.0 mi Calm Calm - N/A   Overcast
6:56 AM 73.0 °F - 71.1 °F 93% 29.87 in 9.0 mi Calm Calm - N/A   Mostly Cloudy
7:05 AM 73.4 °F - 71.6 °F 94% 29.91 in 10.0 mi East 3.5 mph - N/A   Scattered Clouds
7:56 AM 75.9 °F - 72.0 °F 87% 29.88 in 10.0 mi Calm Calm - N/A   Clear
8:56 AM 79.0 °F - 73.9 °F 84% 29.89 in 10.0 mi Calm Calm - N/A   Clear
9:56 AM 81.0 °F 86.2 °F 73.9 °F 79% 29.90 in 10.0 mi SSW 3.5 mph - N/A   Clear
10:56 AM 84.0 °F 90.2 °F 73.0 °F 69% 29.90 in 10.0 mi Calm Calm - N/A   Partly Cloudy
11:32 AM 87.8 °F 95.6 °F 73.4 °F 62% 29.94 in 10.0 mi Calm Calm - N/A Thunderstorm Thunderstorm
11:56 AM 84.9 °F 91.4 °F 73.0 °F 67% 29.89 in 10.0 mi Calm Calm - N/A Thunderstorm Thunderstorm
12:22 PM 78.8 °F - 71.6 °F 78% 29.97 in 7.0 mi SE 23.0 mph 34.5 mph 0.03 in Rain , Thunderstorm Heavy Thunderstorms and Rain
12:26 PM 73.4 °F - 69.8 °F 88% 29.96 in 3.0 mi SE 23.0 mph 36.8 mph 0.07 in Rain , Thunderstorm Heavy Thunderstorms and Rain
12:28 PM 73.4 °F - 69.8 °F 88% 29.96 in 2.5 mi SE 21.9 mph 36.8 mph 0.07 in Rain , Thunderstorm Heavy Thunderstorms and Rain
12:37 PM 71.6 °F - 66.2 °F 83% 29.97 in 3.0 mi SSE 23.0 mph 33.4 mph 0.11 in Rain , Thunderstorm Heavy Thunderstorms and Rain
12:40 PM 71.6 °F - 66.2 °F 83% 29.97 in 1.8 mi South 31.1 mph 38.0 mph 0.12 in Rain , Thunderstorm Heavy Thunderstorms and Rain
12:53 PM 71.6 °F - 68.0 °F 88% 29.96 in 3.0 mi South 9.2 mph 26.5 mph 0.15 in Rain , Thunderstorm Heavy Thunderstorms and Rain
12:56 PM 70.0 °F - 66.9 °F 90% 29.91 in 4.0 mi SSW 4.6 mph 26.5 mph 0.15 in Rain , Thunderstorm Heavy Thunderstorms and Rain
1:04 PM 69.8 °F - 68.0 °F 94% 29.95 in 6.0 mi SSW 3.5 mph - 0.00 in Rain , Thunderstorm Heavy Thunderstorms and Rain
1:56 PM 71.1 °F - 68.0 °F 90% 29.91 in 10.0 mi Calm Calm - N/A Thunderstorm Thunderstorm
2:56 PM 73.9 °F - 70.0 °F 87% 29.90 in 10.0 mi Calm Calm - N/A Thunderstorm Thunderstorm
3:56 PM 77.0 °F - 69.1 °F 76% 29.88 in 10.0 mi Calm Calm - N/A Thunderstorm Thunderstorm
4:43 PM 78.8 °F - 71.6 °F 78% 29.92 in 10.0 mi Calm Calm - N/A   Partly Cloudy
4:56 PM 79.0 °F - 72.0 °F 79% 29.87 in 10.0 mi Calm Calm - N/A   Partly Cloudy
5:56 PM 79.0 °F - 72.0 °F 79% 29.86 in 10.0 mi Calm Calm - N/A   Clear
6:30 PM 78.8 °F - 71.6 °F 78% 29.93 in 10.0 mi NW 6.9 mph - N/A   Mostly Cloudy
6:56 PM 75.9 °F - 68.0 °F 76% 29.91 in 10.0 mi NNW 8.1 mph - N/A   Overcast
7:07 PM 75.2 °F - 68.0 °F 78% 29.94 in 10.0 mi NNW 8.1 mph - N/A   Overcast
7:45 PM 75.2 °F - 69.8 °F 83% 29.94 in 10.0 mi Calm Calm - 0.00 in Thunderstorm Thunderstorm
7:56 PM 75.0 °F - 69.1 °F 82% 29.89 in 10.0 mi ESE 4.6 mph - 0.00 in Thunderstorm Thunderstorm
8:14 PM 75.2 °F - 69.8 °F 83% 29.92 in 10.0 mi ESE 5.8 mph - N/A   Partly Cloudy
8:56 PM 73.9 °F - 70.0 °F 87% 29.89 in 10.0 mi NE 4.6 mph - N/A   Partly Cloudy
9:56 PM 75.0 °F - 71.1 °F 87% 29.94 in 10.0 mi ENE 6.9 mph - N/A   Mostly Cloudy
10:56 PM 73.0 °F - 68.0 °F 84% 29.95 in 10.0 mi East 10.4 mph - N/A   Overcast
11:56 PM 72.0 °F - 66.9 °F 84% 29.94 in 10.0 mi East 9.2 mph - N/A   Clear